Weather History for KGZL - November, 2011

Change the Weather History Date:

Saturday, November 12, 2011

  Actual Average (KJSV) Record (KJSV)
Temperature  
Mean Temperature 60 °F -  
Max Temperature 68 °F 61 °F 85 °F (1955)
Min Temperature 51 °F 37 °F 19 °F (1968)
Degree Days  
Heating Degree Days 6    
Growing Degree Days 10 (Base 50)    
Moisture  
Dew Point 39 °F    
Average Humidity 47    
Maximum Humidity 60    
Minimum Humidity 31    
Precipitation  
Precipitation 0.00 in - - ()
Sea Level Pressure  
Sea Level Pressure 29.84 in    
Wind  
Wind Speed 15 mph (SSW)    
Max Wind Speed 23 mph    
Max Gust Speed 40 mph    
Visibility 10 miles    
Events      
Averages and records for this station are not official NWS values.
T = Trace of Precipitation, MM = Missing Value Source: NWS Daily Summary

Daily Weather History Graph

Daily Weather History Graph

Search for Another Location

Airport or City:

Trip Planner

Search our weather history database for the weather conditions in past years. The results will help you decide how hot, cold, wet, or windy it might be!

Date:

Astronomy

Nov. 12, 2011 Rise Set
Actual Time 6:52 AM CST 5:16 PM CST
Civil Twilight 6:25 AM CST 5:43 PM CST
Nautical Twilight 5:54 AM CST 6:13 PM CST
Astronomical Twilight 5:24 AM CST 6:43 PM CST
Moon 6:37 PM CST (11/12) 8:31 AM CST (11/12)
Length of Visible Light 11h 17m
Length of Day
10h 24m
Full, 97% of the Moon is Illuminated
Nov 12
Full
Nov 18
Last Quarter
Nov 25
New
Dec 2
First Quarter
Dec 10
Full

Hourly Weather History & Observations

Time (CST) Temp. Dew Point Humidity Pressure Visibility Wind Dir Wind Speed Gust Speed Precip Events Conditions
12:15 AM 55.4 °F 24.8 °F 31% 29.94 in 10.0 mi SSW 17.3 mph 23.0 mph N/A   Unknown
12:35 AM 55.4 °F 24.8 °F 31% 29.94 in 10.0 mi SSW 15.0 mph 25.3 mph N/A   Unknown
12:55 AM 55.4 °F 24.8 °F 31% 29.93 in 10.0 mi SSW 13.8 mph 20.7 mph N/A   Unknown
1:15 AM 55.4 °F 24.8 °F 31% 29.93 in 10.0 mi SSW 15.0 mph 25.3 mph N/A   Unknown
1:35 AM 55.4 °F 24.8 °F 31% 29.92 in 10.0 mi SSW 16.1 mph 24.2 mph N/A   Unknown
1:55 AM 55.4 °F 24.8 °F 31% 29.92 in 10.0 mi SSW 19.6 mph 26.5 mph N/A   Unknown
2:15 AM 55.4 °F 24.8 °F 31% 29.91 in 10.0 mi SSW 15.0 mph 23.0 mph N/A   Unknown
2:35 AM 53.6 °F 24.8 °F 33% 29.92 in 10.0 mi SSW 9.2 mph 20.7 mph N/A   Unknown
2:55 AM 53.6 °F 24.8 °F 33% 29.92 in 10.0 mi SSW 10.4 mph - N/A   Unknown
3:15 AM 53.6 °F 24.8 °F 33% 29.91 in 10.0 mi SSW 11.5 mph - N/A   Unknown
3:35 AM 53.6 °F 24.8 °F 33% 29.91 in 10.0 mi SSW 10.4 mph - N/A   Unknown
3:55 AM 51.8 °F 24.8 °F 35% 29.90 in 10.0 mi South 8.1 mph - N/A   Unknown
4:15 AM 53.6 °F 24.8 °F 33% 29.90 in 10.0 mi South 12.7 mph - N/A   Unknown
4:55 AM 53.6 °F 28.4 °F 38% 29.90 in 10.0 mi SSW 15.0 mph 20.7 mph N/A   Unknown
5:15 AM 53.6 °F 28.4 °F 38% 29.89 in 10.0 mi SSW 13.8 mph 20.7 mph N/A   Unknown
5:35 AM 53.6 °F 30.2 °F 41% 29.89 in 10.0 mi South 13.8 mph 25.3 mph N/A   Unknown
5:55 AM 53.6 °F 32.0 °F 44% 29.89 in 10.0 mi South 12.7 mph 20.7 mph N/A   Unknown
6:15 AM 55.4 °F 32.0 °F 41% 29.89 in 10.0 mi SSW 12.7 mph 19.6 mph N/A   Unknown
6:35 AM 55.4 °F 32.0 °F 41% 29.89 in 10.0 mi SSW 10.4 mph 21.9 mph N/A   Unknown
6:55 AM 55.4 °F 32.0 °F 41% 29.90 in 10.0 mi SSW 11.5 mph 18.4 mph N/A   Unknown
7:15 AM 55.4 °F 32.0 °F 41% 29.90 in 10.0 mi SSW 10.4 mph 18.4 mph N/A   Unknown
7:35 AM 55.4 °F 33.8 °F 44% 29.89 in 10.0 mi SSW 13.8 mph 23.0 mph N/A   Unknown
7:55 AM 55.4 °F 35.6 °F 47% 29.89 in 10.0 mi SSW 16.1 mph 26.5 mph N/A   Unknown
8:15 AM 55.4 °F 35.6 °F 47% 29.90 in 10.0 mi South 16.1 mph 26.5 mph N/A   Unknown
8:35 AM 55.4 °F 37.4 °F 51% 29.89 in 10.0 mi South 16.1 mph 23.0 mph N/A   Unknown
8:55 AM 57.2 °F 37.4 °F 48% 29.90 in 10.0 mi SSW 15.0 mph 27.6 mph N/A   Unknown
9:15 AM 57.2 °F 39.2 °F 51% 29.90 in 10.0 mi SSW 15.0 mph 23.0 mph N/A   Unknown
9:35 AM 57.2 °F 39.2 °F 51% 29.89 in 10.0 mi SSW 17.3 mph 25.3 mph N/A   Unknown
9:55 AM 59.0 °F 39.2 °F 48% 29.88 in 10.0 mi SSW 17.3 mph 26.5 mph N/A   Unknown
10:15 AM 59.0 °F 41.0 °F 51% 29.87 in 10.0 mi SSW 19.6 mph 24.2 mph N/A   Unknown
10:35 AM 59.0 °F 41.0 °F 51% 29.86 in 10.0 mi SSW 15.0 mph 31.1 mph N/A   Unknown
10:55 AM 59.0 °F 41.0 °F 51% 29.85 in 10.0 mi SSW 15.0 mph 23.0 mph N/A   Unknown
11:15 AM 60.8 °F 41.0 °F 48% 29.83 in 10.0 mi SSW 17.3 mph 24.2 mph N/A   Unknown
11:35 AM 62.6 °F 44.6 °F 52% 29.82 in 10.0 mi SSW 21.9 mph 33.4 mph N/A   Unknown
11:55 AM 62.6 °F 46.4 °F 55% 29.81 in 10.0 mi SSW 17.3 mph 32.2 mph N/A   Unknown
12:35 PM 64.4 °F 48.2 °F 56% 29.78 in 10.0 mi SSW 21.9 mph 39.1 mph N/A   Unknown
12:55 PM 64.4 °F 48.2 °F 56% 29.78 in 10.0 mi SSW 20.7 mph 29.9 mph N/A   Unknown
1:15 PM 66.2 °F 48.2 °F 52% 29.78 in 10.0 mi SSW 19.6 mph 29.9 mph N/A   Unknown
1:35 PM 64.4 °F 48.2 °F 56% 29.78 in 9.0 mi SSW 17.3 mph 25.3 mph N/A   Unknown
1:55 PM 66.2 °F 48.2 °F 52% 29.76 in 9.0 mi SSW 17.3 mph 28.8 mph N/A   Unknown
2:15 PM 66.2 °F 48.2 °F 52% 29.75 in 9.0 mi SSW 23.0 mph 32.2 mph N/A   Unknown
2:35 PM 66.2 °F 48.2 °F 52% 29.75 in 9.0 mi SSW 19.6 mph 40.3 mph N/A   Unknown
2:55 PM 66.2 °F 48.2 °F 52% 29.75 in 10.0 mi SSW 18.4 mph 31.1 mph N/A   Unknown
3:15 PM 68.0 °F 48.2 °F 49% 29.76 in 10.0 mi SSW 19.6 mph 34.5 mph N/A   Unknown
3:35 PM 68.0 °F 48.2 °F 49% 29.75 in 10.0 mi SSW 17.3 mph 28.8 mph N/A   Unknown
3:55 PM 68.0 °F 48.2 °F 49% 29.74 in 9.0 mi South 18.4 mph 29.9 mph N/A   Unknown
4:15 PM 66.2 °F 50.0 °F 56% 29.75 in 10.0 mi South 13.8 mph 23.0 mph N/A   Unknown
4:35 PM 66.2 °F 50.0 °F 56% 29.76 in 9.0 mi SSW 11.5 mph 24.2 mph N/A   Unknown
4:55 PM 64.4 °F 50.0 °F 59% 29.77 in 10.0 mi SSW 12.7 mph 21.9 mph N/A   Unknown
5:15 PM 64.4 °F 50.0 °F 59% 29.77 in 10.0 mi SSW 13.8 mph 24.2 mph N/A   Unknown
5:35 PM 64.4 °F 50.0 °F 59% 29.77 in 10.0 mi SSW 13.8 mph 20.7 mph N/A   Unknown
5:55 PM 64.4 °F 50.0 °F 59% 29.76 in 10.0 mi SSW 12.7 mph 21.9 mph N/A   Unknown
6:15 PM 64.4 °F 50.0 °F 59% 29.76 in 10.0 mi SSW 13.8 mph 20.7 mph N/A   Unknown
6:35 PM 64.4 °F 50.0 °F 59% 29.76 in 10.0 mi SSW 15.0 mph 20.7 mph N/A   Unknown
6:55 PM 66.2 °F 50.0 °F 56% 29.77 in 10.0 mi SSW 12.7 mph 21.9 mph N/A   Unknown
7:15 PM 66.2 °F 50.0 °F 56% 29.77 in 10.0 mi SSW 12.7 mph 23.0 mph N/A   Unknown
7:35 PM 66.2 °F 51.8 °F 60% 29.77 in 10.0 mi SSW 13.8 mph 24.2 mph N/A   Unknown
7:55 PM 66.2 °F 51.8 °F 60% 29.77 in 10.0 mi SSW 15.0 mph 25.3 mph N/A   Unknown
8:35 PM 66.2 °F 51.8 °F 60% 29.76 in 10.0 mi SSW 15.0 mph 27.6 mph N/A   Unknown
8:55 PM 66.2 °F 51.8 °F 60% 29.76 in 10.0 mi SSW 15.0 mph 24.2 mph N/A   Unknown
9:15 PM 66.2 °F 51.8 °F 60% 29.75 in 10.0 mi SSW 16.1 mph 23.0 mph N/A   Unknown
9:35 PM 66.2 °F 51.8 °F 60% 29.75 in 10.0 mi SSW 18.4 mph 29.9 mph N/A   Unknown
9:55 PM 68.0 °F 51.8 °F 56% 29.74 in 10.0 mi SSW 17.3 mph 33.4 mph N/A   Unknown
10:15 PM 68.0 °F 53.6 °F 60% 29.74 in 10.0 mi SSW 17.3 mph 31.1 mph N/A   Unknown
10:35 PM 66.2 °F 53.6 °F 64% 29.74 in 10.0 mi SSW 20.7 mph 31.1 mph N/A   Unknown
10:55 PM 68.0 °F 53.6 °F 60% 29.73 in 10.0 mi SSW 21.9 mph 33.4 mph N/A   Unknown
11:15 PM 66.2 °F 53.6 °F 64% 29.73 in 10.0 mi SSW 20.7 mph 32.2 mph N/A   Unknown
11:35 PM 66.2 °F 53.6 °F 64% 29.73 in 10.0 mi SSW 24.2 mph 33.4 mph N/A   Unknown
11:55 PM 66.2 °F 53.6 °F 64% 29.72 in 10.0 mi SSW 18.4 mph 28.8 mph N/A   Unknown